Weerstation Grootegast  Weerstation Grootegast


15 daagse weersverwachting Hohenems (AT)

  • Overzicht
  • Per uur
  • 15 dagen
  • Extra
  • Vergelijk
  • Kaarten
  • Dagkaart
  • Meer »
  • Info
  • Statistieken
  • Directe link
    Temp 6h Neerslag Wind  
 07:08     18:01    Daglengte: 10:53 Vandaag
07:00
5.0 mm
5
13:00
6.0 mm
6
19:00
10.7 mm
3
warningclass
 07:06     18:02    Daglengte: 10:56 Morgen
01:00
10.4 mm
3
warningclass
07:00
-0°
10.5 mm
2
warningclass
13:00
 
3
19:00
13.6 mm
8
 07:04     18:04    Daglengte: 11:00 Vrijdag 28 Feb
01:00
16.3 mm
6
07:00
11.8 mm
2
warningclass
13:00
9.8 mm
1
19:00
 
2
 07:02     18:05    Daglengte: 11:03 Zaterdag 29 Feb
01:00
5.8 mm
2
Locatie info
Region: Vorarlberg
Latitude: 47.3623°N
Longitude: 9.6889°E
417 masl
Postcode: 6845
Temp/Neerslag /Baro Onweer/DauwpuntSneeuw
    Temp Baro 1h Neerslag Dauwpunt Wind UV BewolkingSneeuw  
 07:08     18:01    Daglengte: 10:53 Vandaag
04:00
Voelt als: 0.8°
1002.4 hPa 2.8 mm
48%
1.0°
6
Windvlaag: 3.1 m/s
73%1 cm
05:00
Voelt als: 0.4°
1003.1 hPa 1.2 mm
82%
-0.0°
5
Windvlaag: 3.3 m/s
62%1 cm
06:00
Voelt als: -0.7°
1003.7 hPa 1.1 mm
81%
-1.4°
5
Windvlaag: 3.3 m/s
53%1 cm
07:00
Voelt als: -1.3°
1003.7 hPa
81%
-2.0°
5
Windvlaag: 3.5 m/s
78%1 cm
08:00
Voelt als: -1.1°
1003.1 hPa
74%
-2.2°
4
Windvlaag: 4 m/s
67%1 cm
09:00
Voelt als: -0.4°
1002.7 hPa
68%
-2.1°
4
Windvlaag: 3.2 m/s
69%1 cm
10:00
Voelt als: -0.1°
1002.6 hPa 1.5 mm
77%
-2.0°
5
Windvlaag: 2.6 m/s
87%1 cm
11:00
Voelt als: -0.4°
1002.9 hPa 1.4 mm
82%
-1.9°
5
Windvlaag: 2.3 m/s
87%1 cm
12:00
Voelt als: -1.7°
1003.8 hPa 1.9 mm
82%
-1.9°
6
Windvlaag: 2.6 m/s
86%1 cm
13:00
Voelt als: -1.2°
1004.3 hPa 1.2 mm
82%
-2.7°
6
Windvlaag: 2.4 m/s
83%1 cm
14:00
Voelt als: -1.2°
1004.7 hPa 1.4 mm
82%
-2.9°
6
Windvlaag: 2.1 m/s
79%1 cm
15:00
Voelt als: -0.8°
1005.2 hPa 1.4 mm
82%
-3.5°
5
Windvlaag: 1.3 m/s
64%1 cm
16:00
Voelt als: -1.0°
1005.7 hPa 1.9 mm
82%
-3.9°
5
Windvlaag: 1.5 m/s
78%1 cm warningclass
17:00
Voelt als: -2.2°
1006.8 hPa 2.0 mm
82%
-2.5°
4
Windvlaag: 2 m/s
83%1 cm warningclass
18:00
Voelt als: -2.7°
1008.0 hPa 2.1 mm
82%
-3.0°
4
Windvlaag: 2.8 m/s
71%1 cm warningclass
19:00
Voelt als: -2.9°
1009.2 hPa 1.9 mm
82%
-2.8°
3
Windvlaag: 2.5 m/s
65%1 cm warningclass
20:00
Voelt als: -3.0°
1010.1 hPa 1.5 mm
82%
-2.8°
3
Windvlaag: 1.7 m/s
79%1 cm warningclass
21:00
Voelt als: -3.0°
1010.8 hPa 1.4 mm
82%
-2.9°
3
Windvlaag: 1.6 m/s
65%1 cm warningclass
22:00
Voelt als: -3.1°
1011.7 hPa 1.9 mm
82%
-3.2°
3
Windvlaag: 1.5 m/s
54%1 cm warningclass
23:00
Voelt als: -3.3°
1012.2 hPa 1.8 mm
82%
-3.5°
3
Windvlaag: 2.1 m/s
67%1 cm warningclass
 07:06     18:02    Daglengte: 10:56 Morgen
00:00
Voelt als: -3.2°
1012.8 hPa 1.9 mm
82%
-3.2°
3
Windvlaag: 2 m/s
74%1 cm warningclass
01:00
Voelt als: -3.5°
1013.2 hPa 1.9 mm
82%
-3.3°
3
Windvlaag: 1.8 m/s
67%1 cm warningclass
02:00
Voelt als: -3.0°
1013.7 hPa 1.9 mm
82%
-3.0°
3
Windvlaag: 1.5 m/s
72%1 cm warningclass
03:00
Voelt als: -3.4°
1013.6 hPa 1.8 mm
82%
-3.1°
3
Windvlaag: 2 m/s
59%1 cm warningclass
04:00
-0°
Voelt als: -3.6°
1013.4 hPa 1.7 mm
82%
-4.0°
3
Windvlaag: 1.9 m/s
65%1 cm warningclass
05:00
-0°
Voelt als: -3.3°
1013.4 hPa 1.7 mm
82%
-4.3°
3
Windvlaag: 1.9 m/s
53%2 cm warningclass
06:00
-0°
Voelt als: -3.4°
1013.6 hPa 1.7 mm
81%
-4.8°
3
Windvlaag: 1.4 m/s
50%2 cm warningclass
07:00
-0°
Voelt als: -3.0°
1013.6 hPa 1.7 mm
82%
-4.8°
2
Windvlaag: 1.8 m/s
51%2 cm warningclass
08:00
-0°
Voelt als: -2.5°
1013.1 hPa
72%
-4.8°
2
Windvlaag: 2.1 m/s
16%2 cm
09:00
Voelt als: -1.2°
1012.1 hPa
14%
-4.4°
2
Windvlaag: 1.9 m/s
9%2 cm
10:00
Voelt als: 0.4°
1010.2 hPa
14%
-4.8°
2
Windvlaag: 2 m/s
57%2 cm
11:00
Voelt als: 1.7°
1007.9 hPa
14%
-5.5°
2
Windvlaag: 2.1 m/s
90%1 cm
12:00
Voelt als: 3.0°
1005.8 hPa
14%
-5.1°
2
Windvlaag: 1.1 m/s
90%1 cm
13:00
Voelt als: 3.6°
1003.5 hPa
14%
-4.8°
3
Windvlaag: -0.4 m/s
91%1 cm
14:00
Voelt als: 3.0°
1001.1 hPa 1.7 mm
14%
-3.0°
3
Windvlaag: -0.2 m/s
91%1 cm
15:00
Voelt als: 1.8°
999.9 hPa 2.2 mm
82%
-1.8°
4
Windvlaag: 3.3 m/s
91%1 cm
16:00
Voelt als: 0.7°
999.0 hPa 2.0 mm
82%
-1.0°
4
Windvlaag: 3.4 m/s
90%2 cm
17:00
Voelt als: 0.1°
998.7 hPa 2.3 mm
82%
-0.1°
7
Windvlaag: 4 m/s
89%2 cm
18:00
Voelt als: 0.4°
997.6 hPa 2.8 mm
82%
-1.4°
7
Windvlaag: 5.9 m/s
87%2 cm
19:00
Voelt als: 1.1°
997.6 hPa 2.6 mm
82%
-0.9°
8
Windvlaag: 7.2 m/s
75%1 cm
20:00
Voelt als: 1.3°
998.8 hPa 2.2 mm
82%
0.2°
7
Windvlaag: 5.6 m/s
82%1 cm
21:00
Voelt als: 0.4°
1001.8 hPa 2.7 mm
82%
0.7°
8
Windvlaag: 2.2 m/s
65%1 cm
22:00
Voelt als: -0.9°
1006.1 hPa 3.2 mm
100%
0.7°
8
Windvlaag: 2.3 m/s
71%1 cm
23:00
Voelt als: -1.7°
1009.0 hPa 2.8 mm
97%
0.4°
8
Windvlaag: 2.6 m/s
88%2 cm
 07:04     18:04    Daglengte: 11:00 Vrijdag 28 Feb
00:00
Voelt als: -2.0°
1010.7 hPa 3.0 mm
98%
-0.3°
7
Windvlaag: 3.4 m/s
94%2 cm
01:00
Voelt als: -2.3°
1012.2 hPa 2.4 mm
100%
-0.7°
6
Windvlaag: 4.1 m/s
86%2 cm
02:00
Voelt als: -2.5°
1013.8 hPa 3.3 mm
92%
-0.9°
5
Windvlaag: 3.6 m/s
60%2 cm
03:00
Voelt als: -2.7°
1015.1 hPa 2.4 mm
90%
-1.3°
5
Windvlaag: 3.2 m/s
65%2 cm
04:00
Voelt als: -2.8°
1016.2 hPa 2.5 mm
91%
-1.2°
4
Windvlaag: 2.7 m/s
73%2 cm
05:00
Voelt als: -3.2°
1017.7 hPa 3.6 mm
95%
-1.1°
4
Windvlaag: 1.9 m/s
43%2 cm warningclass
06:00
Voelt als: -3.3°
1019.4 hPa
92%
-1.7°
3
Windvlaag: 1.3 m/s
31%2 cm
07:00
Voelt als: -2.9°
1020.5 hPa
48%
-2.1°
2
Windvlaag: 0.8 m/s
38%2 cm
08:00
Voelt als: -2.5°
1021.0 hPa 5.0 mm
46%
-2.5°
2
Windvlaag: 1.5 m/s
46%2 cm warningclass
09:00
Voelt als: -1.3°
1021.8 hPa 4.8 mm
43%
-2.5°
2
Windvlaag: 1.6 m/s
56%2 cm
10:00
Voelt als: -0.5°
1022.1 hPa
28%
-2.6°
2
Windvlaag: 1.4 m/s
58%2 cm
11:00
Voelt als: 0.9°
1021.8 hPa
24%
-3.6°
2
Windvlaag: 1 m/s
32%2 cm
12:00
Voelt als: 2.6°
1021.2 hPa
21%
-3.0°
2
Windvlaag: 0.9 m/s
14%2 cm
13:00
Voelt als: 3.5°
1020.3 hPa
21%
-2.0°
1
Windvlaag: 0.8 m/s
7%2 cm
14:00
Voelt als: 5.3°
1019.5 hPa
21%
-4.9°
1
Windvlaag: 0.9 m/s
7%2 cm
15:00
Voelt als: 5.6°
1018.6 hPa
21%
-5.1°
1
Windvlaag: 0.9 m/s
16%2 cm
16:00
1018.2 hPa
21%
-4.6°
1
Windvlaag: 0.7 m/s
38%2 cm
17:00
Voelt als: 4.1°
1017.7 hPa
21%
-4.6°
1
Windvlaag: 0.9 m/s
22%2 cm
18:00
Voelt als: 0.3°
1017.2 hPa
21%
-4.6°
2
Windvlaag: 1 m/s
20%2 cm
19:00
Voelt als: -0.2°
1017.0 hPa
21%
-3.6°
2
Windvlaag: 1.1 m/s
50%2 cm
20:00
Voelt als: 0.1°
1016.3 hPa
21%
-3.2°
2
Windvlaag: 6.7 m/s
52%2 cm
21:00
Voelt als: 0.3°
1015.9 hPa
24%
-2.8°
2
Windvlaag: 3.1 m/s
63%2 cm
22:00
Voelt als: 0.5°
1015.4 hPa
100%
-2.4°
2
Windvlaag: 10.4 m/s
79%2 cm
23:00
Voelt als: 1.0°
1014.5 hPa
100%
-2.1°
2
Windvlaag: 9.8 m/s
74%2 cm
 07:02     18:05    Daglengte: 11:03 Zaterdag 29 Feb
00:00
Voelt als: 1.4°
1013.8 hPa
100%
-1.9°
2
Windvlaag: 12.2 m/s
92%2 cm
01:00
Voelt als: 1.9°
1013.2 hPa 5.8 mm
100%
-1.6°
2
Windvlaag: 1.8 m/s
100%2 cm
02:00
Voelt als: 0.8°
1012.9 hPa 17.5 mm
100%
-2.4°
3
Windvlaag: 12.4 m/s
99%2 cm
03:00
Voelt als: 0.9°
1012.1 hPa 18.4 mm
100%
-2.1°
3
Windvlaag: 13.6 m/s
99%2 cm
Temp/Neerslag /Baro Onweer/DauwpuntSneeuw
    Temp Baro Neerslag Dauwpunt Wind BewolkingSneeuw  
 07:08     18:01    Daglengte: 10:53 Vandaag
04:00
Voelt als: 0.8°
1002.4 hPa 2.8 mm 1.0°
6
73%1 cm
07:00
Voelt als: -1.3°
1003.7 hPa 2.3 mm -2.0°
5
78%1 cm
10:00
Voelt als: -0.1°
1002.6 hPa 1.5 mm -2.0°
5
87%1 cm
13:00
Voelt als: -1.2°
1004.3 hPa 4.5 mm -2.7°
6
83%1 cm
16:00
Voelt als: -1.0°
1005.7 hPa 4.7 mm -3.9°
5
78%1 cm warningclass
19:00
Voelt als: -2.9°
1009.2 hPa 6.0 mm -2.8°
3
65%1 cm warningclass
22:00
Voelt als: -3.1°
1011.7 hPa 4.8 mm -3.2°
3
54%1 cm warningclass
 07:06     18:02    Daglengte: 10:56 Morgen
01:00
Voelt als: -3.5°
1013.2 hPa 5.6 mm -3.3°
3
67%1 cm warningclass
04:00
-0°
Voelt als: -3.6°
1013.4 hPa 5.4 mm -4.0°
3
65%1 cm warningclass
07:00
-0°
Voelt als: -3.0°
1013.6 hPa 5.2 mm -4.8°
2
51%2 cm warningclass
10:00
Voelt als: 0.4°
1010.2 hPa   -4.8°
2
57%2 cm
13:00
Voelt als: 3.6°
1003.5 hPa   -4.8°
3
91%1 cm
16:00
Voelt als: 0.7°
999.0 hPa 5.8 mm -1.0°
4
90%2 cm
19:00
Voelt als: 1.1°
997.6 hPa 7.8 mm -0.9°
8
75%1 cm
22:00
Voelt als: -0.9°
1006.1 hPa 8.1 mm 0.7°
8
71%1 cm
 07:04     18:04    Daglengte: 11:00 Vrijdag 28 Feb
01:00
Voelt als: -2.3°
1012.2 hPa 8.2 mm -0.7°
6
86%2 cm
04:00
Voelt als: -2.8°
1016.2 hPa 8.2 mm -1.2°
4
73%2 cm
07:00
Voelt als: -2.9°
1020.5 hPa 3.6 mm -2.1°
2
38%2 cm warningclass
10:00
Voelt als: -0.5°
1022.1 hPa 9.8 mm -2.6°
2
58%2 cm
13:00
Voelt als: 3.5°
1020.3 hPa   -2.0°
1
7%2 cm
16:00
1018.2 hPa   -4.6°
1
38%2 cm
19:00
Voelt als: -0.2°
1017.0 hPa   -3.6°
2
50%2 cm
22:00
Voelt als: 0.5°
1015.4 hPa   -2.4°
2
79%2 cm
 07:02     18:05    Daglengte: 11:03 Zaterdag 29 Feb
01:00
Voelt als: 1.9°
1013.2 hPa 5.8 mm -1.6°
2
100%2 cm
04:00
Voelt als: 0.8°
1011.4 hPa 54.6 mm -2.2°
3
97%2 cm
07:00
Voelt als: 1.0°
1009.1 hPa 56.0 mm -2.2°
3
95%1 cm
10:00
Voelt als: 6.3°
1004.7 hPa 40.2 mm -0.2°
3
64%
13:00
11°
1002.1 hPa 40.2 mm 1.0°
3
51%
16:00
Voelt als: 7.6°
1002.3 hPa 40.2 mm -0.1°
3
71%
19:00
Voelt als: 5.6°
1002.9 hPa 40.2 mm -1.4°
3
91%
22:00
Voelt als: 5.1°
1006.9 hPa 40.8 mm 0.3°
2
91%
 07:01     18:07    Daglengte: 11:06 Zondag 01 Maa
01:00
Voelt als: 5.2°
1010.7 hPa 46.5 mm 1.7°
1
92%
04:00
Voelt als: 3.6°
1011.2 hPa 49.6 mm 1.0°
1
90%
07:00
Voelt als: 1.7°
1011.8 hPa 51.5 mm 0.3°
1
89%
10:00
Voelt als: 3.6°
1011.7 hPa 51.7 mm 0.9°
1
65%
13:00
Voelt als: 5.5°
1011.3 hPa 51.9 mm 1.4°
1
42%
16:00
Voelt als: 2.6°
1009.8 hPa 51.9 mm -0.1°
1
22%
19:00
Voelt als: -0.7°
1008.3 hPa 51.9 mm -2.1°
1
2% warningclass
22:00
-2°
Voelt als: -4.2°
1006.1 hPa 53.2 mm -4.1°
2
46% warningclass
 06:59     18:08    Daglengte: 11:09 Maandag 02 Maa
01:00
-4°
Voelt als: -7.5°
1003.8 hPa 54.6 mm -6.1°
3
91% warningclass
04:00
-2°
Voelt als: -4.9°
1003.9 hPa 54.6 mm -4.8°
3
75% warningclass
07:00
Voelt als: -2.1°
1004.2 hPa 54.7 mm -3.5°
2
59% warningclass
10:00
Voelt als: 2.7°
1003.3 hPa 55.1 mm -1.3°
2
41%
13:00
Voelt als: 7.2°
1002.2 hPa 56.7 mm 0.6°
1
24%
16:00
Voelt als: 4.5°
1001.2 hPa 56.8 mm 0.2°
1
57%
19:00
Voelt als: 1.5°
1000.5 hPa 56.8 mm -0.8°
1
91%
22:00
Voelt als: 1.6°
1001.6 hPa 56.8 mm -0.5°
1
91%
 06:57     18:10    Daglengte: 11:13 Dinsdag 03 Maa
01:00
Voelt als: 1.8°
1002.7 hPa 56.8 mm -0.1°
1
92%
04:00
Voelt als: 1.5°
1006.2 hPa 56.8 mm 0.6°
1
92%
07:00
Voelt als: 1.3°
1009.7 hPa 56.9 mm 1.4°
1
92%
10:00
Voelt als: 2.1°
1012.2 hPa 58.7 mm 1.8°
1
92%
13:00
Voelt als: 2.9°
1014.8 hPa 60.5 mm 1.9°
1
92%
16:00
Voelt als: 2.3°
1016.4 hPa 61.2 mm 1.5°
1
85%
19:00
Voelt als: 1.5°
1018.0 hPa 61.3 mm 1.0°
1
78%
22:00
Voelt als: 0.2°
1018.0 hPa 61.4 mm -0.6°
1
66% warningclass
 06:55     18:11    Daglengte: 11:16 Woensdag 04 Maa
01:00
-0°
Voelt als: -0.8°
1017.7 hPa 122.7 mm -2.1°
1
53% warningclass
07:00
-4°
Voelt als: -7.8°
1015.3 hPa 123.0 mm -6.8°
2
89% warningclass
13:00
Voelt als: 4.7°
1013.1 hPa 123.2 mm 1.3°
2
87%
19:00
Voelt als: 3.8°
1012.1 hPa 133.4 mm 1.5°
1
26%
 06:53     18:13    Daglengte: 11:20 Donderdag 05 Maa
01:00
Voelt als: -0.9°
1007.0 hPa 147.8 mm 0.1°
3
45%
07:00
Voelt als: 1.1°
1011.3 hPa 158.5 mm 2.0°
3
90%
13:00
Voelt als: 2.9°
1012.4 hPa 159.7 mm -1.3°
3
32%
19:00
Voelt als: -0.7°
1009.8 hPa 163.4 mm -2.3°
2
77% warningclass
 06:51     18:14    Daglengte: 11:23 Vrijdag 06 Maa
01:00
Voelt als: -1.2°
1008.8 hPa 175.8 mm -1.4°
2
91% warningclass
07:00
-1°
Voelt als: -2.4°
1010.2 hPa 193.0 mm -3.4°
1
85% warningclass
13:00
Voelt als: -1.4°
1004.5 hPa 200.9 mm 0.8°
4
1%
19:00
Voelt als: -1.1°
1006.9 hPa 211.3 mm 1.2°
2
1%
 06:49     18:16    Daglengte: 11:27 Zaterdag 07 Maa
01:00
-0°
Voelt als: -1.8°
1011.5 hPa 0.8 mm -1.0°
1
68%
07:00
-0°
Voelt als: -1.1°
1011.3 hPa 1.0 mm -0.8°
1
71%
13:00
Voelt als: 4.4°
1011.2 hPa 2.0 mm 4.2°
2
81%
19:00
Voelt als: 0.8°
1014.4 hPa 1.5 mm 0.4°
1
77%
 06:47     18:17    Daglengte: 11:30 Zondag 08 Maa
01:00
-1°
Voelt als: -3.1°
1016.7 hPa 0.4 mm -1.8°
2
62%
07:00
-2°
Voelt als: -3.6°
1017.1 hPa 0.5 mm -2.5°
1
51%
13:00
1014.1 hPa 0.3 mm 5.7°
1
55%
19:00
1015.5 hPa 0.6 mm 2.1°
0
64%
 06:45     18:19    Daglengte: 11:34 Maandag 09 Maa
01:00
Voelt als: -0.6°
1017.2 hPa 0.7 mm 0.1°
1
55%
07:00
-0°
Voelt als: -0.9°
1018.1 hPa 0.8 mm -1.0°
1
49%
13:00
Voelt als: 8.2°
1016.5 hPa 0.5 mm 6.2°
1
47%
19:00
1018.3 hPa 0.4 mm 1.8°
0
56%
 06:43     18:20    Daglengte: 11:37 Dinsdag 10 Maa
01:00
Voelt als: -0.4°
1020.1 hPa 0.2 mm 0.4°
1
49%
07:00
Voelt als: -1.3°
1019.9 hPa   -0.4°
2
41%
13:00
10°
1016.9 hPa 0.2 mm 7.2°
1
45%
19:00
1017.8 hPa 0.6 mm 3.9°
0
64%
 06:41     18:21    Daglengte: 11:40 Woensdag 11 Maa
01:00
Voelt als: 1.2°
1019.3 hPa 0.5 mm 1.3°
1
60%
07:00
Voelt als: 0.5°
1019.5 hPa 0.8 mm 0.7°
1
49%
13:00
10°
1017.5 hPa 0.4 mm 7.3°
1
42%
19:00
1018.3 hPa 1.1 mm 3.7°
0
56%
 06:39     18:23    Daglengte: 11:44 Donderdag 12 Maa
01:00
Voelt als: 1.7°
1019.6 hPa 1.6 mm 2.2°
1
49%
  CAPE Lifted Index Hail Supercell Tornado SRH 3km CL BTM PRES CL TOP PRES Swiss DWD icon SMHI TS
 07:08     18:01    Daglengte: 10:53 Vandaag
04:00 73 J/kg 1.3 K 0 % 0 % 0 % 0 m²/s² 0 0 1.96 3
05:00 189 J/kg 1.0 K 0 % 0 % 0 % 0 m²/s² 0 0 1.93 61
06:00 201 J/kg 0.1 K 0 % 0 % 0 % 0 m²/s² 0 0 1.15 85
07:00 160 J/kg -1.0 K 0 % 0 % 0 % 0 m²/s² 0 0 1.01 85
08:00 114 J/kg -0.7 K 0 % 0 % 0 % 0 m²/s² 0 0 0.89 85
09:00 127 J/kg -0.7 K 0 % 0 % 0 % 0 m²/s² 0 0 0.47 3
10:00 139 J/kg -0.8 K 0 % 0 % 0 % 0 m²/s² 0 0 0.34 85
11:00 166 J/kg -1.1 K 0 % 0 % 0 % 0 m²/s² 0 0 0.61 71
12:00 229 J/kg -1.7 K 0 % 0 % 0 % 0 m²/s² 0 0 -0.35 71
13:00 211 J/kg -1.5 K 0 % 0 % 0 % 0 m²/s² 0 0 0.15 85
14:00 307 J/kg -2.1 K 0 % 0 % 0 % 0 m²/s² 0 0 -0.39 85
15:00 260 J/kg -1.7 K 0 % 0 % 0 % 0 m²/s² 0 0 1.66 85
16:00 232 J/kg -1.4 K 0 % 0 % 0 % 0 m²/s² 0 0 0.52 95
17:00 155 J/kg -1.3 K 0 % 0 % 0 % 0 m²/s² 0 0 -0.46 95
18:00 91 J/kg -1.2 K 0 % 0 % 0 % 0 m²/s² 0 0 -0.57 85
19:00 96 J/kg -0.7 K 0 % 0 % 0 % 0 m²/s² 0 0 0.02 95
20:00 49 J/kg -0.8 K 0 % 0 % 0 % 0 m²/s² 0 0 0.97 95
21:00 17 J/kg -0.5 K 0 % 0 % 0 % 0 m²/s² 0 0 1.09 95
22:00 20 J/kg -0.8 K 0 % 0 % 0 % 0 m²/s² 0 0 0.58 86
23:00 10 J/kg -0.7 K 0 % 0 % 0 % 0 m²/s² 0 0 0.14 85
 07:06     18:02    Daglengte: 10:56 Morgen
00:00 0 J/kg -0.4 K 0 % 0 % 0 % 0 m²/s² 0 0 0.56 85
01:00 0 J/kg 1.1 K 0 % 0 % 0 % 0 m²/s² 0 0 2.69 85
02:00 38 J/kg 2.1 K 0 % 0 % 0 % 0 m²/s² 0 0 3.63 85
03:00 14 J/kg 3.8 K 0 % 0 % 0 % 0 m²/s² 0 0 6.29 85
04:00 0 J/kg 5.2 K 0 % 0 % 0 % 0 m²/s² 0 0 6.22 85
05:00 0 J/kg 5.9 K 0 % 0 % 0 % 0 m²/s² 0 0 6.62 85
06:00 0 J/kg 7.7 K 0 % 0 % 0 % 0 m²/s² 0 0 9.77 85
07:00 0 J/kg 8.9 K 0 % 0 % 0 % 0 m²/s² 0 0 11.42 85
08:00 0 J/kg 10.6 K 0 % 0 % 0 % 0 m²/s² 0 0 14.23 1
09:00 0 J/kg 11.9 K 0 % 0 % 0 % 0 m²/s² 0 0 15.11 1
10:00 0 J/kg 12.2 K 0 % 0 % 0 % 0 m²/s² 0 0 14.6 1
11:00 0 J/kg 12.9 K 0 % 0 % 0 % 0 m²/s² 0 0 13.92 3
12:00 0 J/kg 12.0 K 0 % 0 % 0 % 0 m²/s² 0 0 12.54 3
13:00 0 J/kg 10.1 K 0 % 0 % 0 % 0 m²/s² 0 0 10.58 3
14:00 0 J/kg 7.7 K 0 % 0 % 0 % 0 m²/s² 0 0 8.03 3
15:00 0 J/kg 7.1 K 0 % 0 % 0 % 0 m²/s² 0 0 7.37 71
16:00 0 J/kg 3.3 K 0 % 0 % 0 % 0 m²/s² 0 0 3.51 71
17:00 0 J/kg 1.4 K 0 % 0 % 0 % 0 m²/s² 0 0 2.87 61
18:00 0 J/kg 2.0 K 0 % 0 % 0 % 0 m²/s² 0 0 3.17 61
19:00 0 J/kg 2.8 K 0 % 0 % 0 % 0 m²/s² 0 0 5.5 80
20:00 0 J/kg 3.5 K 0 % 0 % 0 % 0 m²/s² 0 0 7.88 80
21:00 80 J/kg 4.5 K 0 % 0 % 0 % 0 m²/s² 0 0 8.04 80
22:00 88 J/kg 7.0 K 0 % 0 % 0 % 0 m²/s² 0 0 8.23 80
23:00 70 J/kg 7.2 K 0 % 0 % 0 % 0 m²/s² 0 0 8.37 85
 07:04     18:04    Daglengte: 11:00 Vrijdag 28 Feb
00:00 36 J/kg 6.7 K 0 % 0 % 0 % 0 m²/s² 0 0 7.54 85
01:00 42 J/kg 7.4 K 0 % 0 % 0 % 0 m²/s² 0 0 9.02 85
02:00 24 J/kg 7.6 K 0 % 0 % 0 % 0 m²/s² 0 0 8.77 85
03:00 66 J/kg 7.8 K 0 % 0 % 0 % 0 m²/s² 0 0 10.2 85
04:00 63 J/kg 8.3 K 0 % 0 % 0 % 0 m²/s² 0 0 11.51 85
05:00 47 J/kg 9.0 K 0 % 0 % 0 % 0 m²/s² 0 0 12.54 85
06:00 53 J/kg 9.5 K 0 % 0 % 0 % 0 m²/s² 0 0 12.95 85
07:00 57 J/kg 9.8 K 0 % 0 % 0 % 0 m²/s² 0 0 13.34 2
08:00 28 J/kg 10.5 K 0 % 0 % 0 % 0 m²/s² 0 0 14.88 2
09:00 22 J/kg 10.7 K 0 % 0 % 0 % 0 m²/s² 0 0 15.32 2
10:00 0 J/kg 12.4 K 0 % 0 % 0 % 0 m²/s² 0 0 17.8 2
11:00 0 J/kg 13.5 K 0 % 0 % 0 % 0 m²/s² 0 0 18.15 2
12:00 0 J/kg 13.8 K 0 % 0 % 0 % 0 m²/s² 0 0 17.61 1
13:00 0 J/kg 14.4 K 0 % 0 % 0 % 0 m²/s² 0 0 16.71 1
14:00 0 J/kg 13.9 K 0 % 0 % 0 % 0 m²/s² 0 0 16.57 1
15:00 0 J/kg 13.3 K 0 % 0 % 0 % 0 m²/s² 0 0 14.86 2
16:00 0 J/kg 13.3 K 0 % 0 % 0 % 0 m²/s² 0 0 14.44 1
17:00 0 J/kg 13.2 K 0 % 0 % 0 % 0 m²/s² 0 0 13.8 2
18:00 0 J/kg 11.6 K 0 % 0 % 0 % 0 m²/s² 0 0 12.14 2
19:00 0 J/kg 8.6 K 0 % 0 % 0 % 0 m²/s² 0 0 8.96 3
20:00 0 J/kg 6.8 K 0 % 0 % 0 % 0 m²/s² 0 0 7.13 3
21:00 0 J/kg 6.0 K 0 % 0 % 0 % 0 m²/s² 0 0 6.27 3
22:00 0 J/kg 4.5 K 0 % 0 % 0 % 0 m²/s² 0 0 4.8 3
23:00 0 J/kg 4.8 K 0 % 0 % 0 % 0 m²/s² 0 0 5.04 61
 07:02     18:05    Daglengte: 11:03 Zaterdag 29 Feb
00:00 0 J/kg 3.9 K 0 % 0 % 0 % 0 m²/s² 0 0 3.99 61
01:00 0 J/kg 2.8 K 0 % 0 % 0 % 0 m²/s² 0 0 3.04 61
02:00 0 J/kg 1.6 K 0 % 0 % 0 % 0 m²/s² 0 0 1.81
03:00 0 J/kg 1.1 K 0 % 0 % 0 % 0 m²/s² 0 0 1.25
Temp Baro Wind Neerslag
  EWN Forecast EWN WRFDA DWD ICON FMI HIRLAM MET Norway GFS
 07:08     18:01    Daglengte: 10:53 Vandaag
04:00 4.8° 1002.4 hPa 5.6 m/s 2.8 mm 3.0° 1001.0 hPa 3.2 m/s 5.8 mm 4.5° 1003.6 hPa 5.9 m/s 6.4 mm 5.4° 1002.1 hPa 6.2 m/s 0.0 mm 5.0° 1002.5 hPa 3.8 m/s 3.9° 1002.1 hPa 3.1 m/s
07:00 2.7° 1003.7 hPa 4.5 m/s 2.3 mm 2.3° 1000.9 hPa 4.6 m/s 19.3 mm 2.2° 1005.2 hPa 4.3 m/s 1.3 mm 2.9° 1003.6 hPa 5.6 m/s 0.0 mm 2.7° 1003.9 hPa 2.4 m/s 2.1° 1002.9 hPa 3.4 m/s
10:00 3.9° 1002.6 hPa 5.1 m/s 1.5 mm 3.1° 999.4 hPa 5.4 m/s 19.9 mm 3.0° 1004.1 hPa 4.5 m/s 0.2 mm 4.0° 999.6 hPa 7.9 m/s 0.0 mm 4.1° 1003.2 hPa 3.4 m/s 4.3° 1001.8 hPa 2.7 m/s
13:00 3.4° 1004.3 hPa 6.1 m/s 4.5 mm 4.6° 999.7 hPa 7.8 m/s 20.1 mm 2.7° 1005.0 hPa 5.2 m/s 1.4 mm 4.0° 1000.2 hPa 9.9 m/s 0.0 mm 3.4° 1005.2 hPa 4.9 m/s 2.5° 1002.3 hPa 4.5 m/s
16:00 3.1° 1005.7 hPa 4.9 m/s 4.7 mm 3.7° 1001.8 hPa 8.9 m/s 21.6 mm 1.6° 1006.4 hPa 3.3 m/s 1.0 mm 3.3° 1002.2 hPa 7.1 m/s 0.0 mm 3.4° 1006.3 hPa 3.5 m/s 2.2° 1004.8 hPa 4.4 m/s
19:00 0.7° 1009.2 hPa 3.3 m/s 6.0 mm 1.9° 1005.2 hPa 6.6 m/s 22.2 mm 0.2° 1009.2 hPa 1.6 m/s 1.5 mm 2.0° 1006.0 hPa 5.5 m/s 0.0 mm -0.8° 1010.2 hPa 1.5 m/s 0.4° 1009.2 hPa 3.0 m/s
22:00 0.4° 1011.7 hPa 3.1 m/s 4.8 mm 1.1° 1007.6 hPa 6.6 m/s 22.5 mm 0.5° 1011.6 hPa 0.9 m/s 2.5 mm 2.0° 1009.1 hPa 5.6 m/s 0.0 mm -2.5° 1012.7 hPa 1.6 m/s 0.6° 1011.9 hPa 2.9 m/s
 07:06     18:02    Daglengte: 10:56 Morgen
01:00 0.1° 1013.2 hPa 3.1 m/s 5.6 mm 0.1° 1009.8 hPa 4.6 m/s 22.6 mm -0.1° 1013.1 hPa 1.5 m/s 1.4 mm 2.3° 1011.5 hPa 5.0 m/s 0.0 mm -1.1° 1014.0 hPa 1.9 m/s 0.4° 1013.8 hPa 2.4 m/s
04:00 -0.1° 1013.4 hPa 3.0 m/s 5.4 mm 0.6° 1010.1 hPa 5.0 m/s 22.9 mm -0.7° 1014.1 hPa 2.3 m/s 1.0 mm 1.8° 1012.5 hPa 4.2 m/s 0.0 mm -1.1° 1013.5 hPa 1.7 m/s 0.4° 1014.3 hPa 2.9 m/s
07:00 -0.5° 1013.6 hPa 2.0 m/s 5.2 mm -0.3° 1011.7 hPa 3.5 m/s 23.4 mm -0.8° 1015.1 hPa 2.0 m/s 0.9 mm 1.4° 1013.3 hPa 2.0 m/s 0.0 mm -1.3° 1013.6 hPa 2.0 m/s -1.3° 1015.6 hPa 2.2 m/s
10:00 2.7° 1010.2 hPa 2.3 m/s 0.0 mm 3.0° 1008.6 hPa 5.2 m/s 23.5 mm 2.3° 1012.0 hPa 2.4 m/s 0.0 mm 4.1° 1010.6 hPa 3.8 m/s 0.0 mm 2.2° 1010.0 hPa 1.6 m/s 2.2° 1012.4 hPa 2.3 m/s
13:00 5.6° 1003.5 hPa 2.5 m/s 0.0 mm 6.0° 1002.7 hPa 6.5 m/s 23.5 mm 4.6° 1005.8 hPa 2.8 m/s 0.0 mm 6.6° 1004.8 hPa 2.6 m/s 0.0 mm 5.2° 1003.2 hPa 1.7 m/s 5.4° 1006.9 hPa 2.7 m/s
16:00 4.1° 999.0 hPa 4.1 m/s 5.8 mm 4.2° 995.4 hPa 10.1 m/s 25.9 mm 3.4° 1000.1 hPa 4.5 m/s 0.7 mm 6.0° 999.1 hPa 9.9 m/s 0.0 mm 3.3° 999.5 hPa 2.0 m/s 4.0° 1003.8 hPa 3.1 m/s
19:00 5.6° 997.6 hPa 7.6 m/s 7.8 mm 7.1° 993.0 hPa 12.7 m/s 33.3 mm 4.3° 998.9 hPa 5.8 m/s 1.8 mm 6.4° 997.5 hPa 8.9 m/s 0.0 mm 3.7° 998.3 hPa 4.8 m/s 1.8° 1003.0 hPa 4.7 m/s
22:00 4.1° 1006.1 hPa 7.6 m/s 8.1 mm 3.7° 1004.3 hPa 9.3 m/s 37.6 mm 5.4° 1004.4 hPa 7.6 m/s 3.0 mm 3.7° 1006.2 hPa 4.7 m/s 1.9° 1007.0 hPa 4.5 m/s
 07:04     18:04    Daglengte: 11:00 Vrijdag 28 Feb
01:00 2.5° 1012.2 hPa 6.0 m/s 8.2 mm 1.9° 1007.7 hPa 10.0 m/s 41.1 mm 2.7° 1010.8 hPa 5.3 m/s 1.2 mm 2.4° 1012.7 hPa 4.5 m/s 1.4° 1012.1 hPa 5.6 m/s
04:00 1.3° 1016.2 hPa 4.2 m/s 8.2 mm 1.6° 1012.4 hPa 7.8 m/s 42.6 mm 1.4° 1015.6 hPa 3.0 m/s 0.5 mm 1.1° 1016.4 hPa 3.4 m/s 0.3° 1016.0 hPa 4.2 m/s
07:00 0.1° 1020.5 hPa 2.5 m/s 3.6 mm 0.7° 1016.8 hPa 4.6 m/s 43.0 mm 0.8° 1019.1 hPa 1.7 m/s 0.2 mm -0.9° 1021.0 hPa 2.1 m/s -1.3° 1019.8 hPa 2.1 m/s
10:00 2.0° 1022.1 hPa 2.4 m/s 9.8 mm 2.4° 1018.2 hPa 5.5 m/s 43.0 mm 3.0° 1021.0 hPa 0.1 m/s 0.0 mm 1.5° 1023.8 hPa 2.4 m/s 2.3° 1020.6 hPa 2.0 m/s
13:00 4.3° 1020.3 hPa 1.3 m/s 0.0 mm 5.1° 1016.9 hPa 3.8 m/s 43.0 mm 6.0° 1018.9 hPa 0.9 m/s 0.0 mm 3.3° 1022.2 hPa 1.0 m/s 5.0° 1018.6 hPa 1.0 m/s
16:00 5.2° 1018.2 hPa 0.8 m/s 0.0 mm 6.0° 1014.6 hPa 2.9 m/s 43.0 mm 6.8° 1016.9 hPa 0.1 m/s 0.0 mm 4.1° 1020.0 hPa 0.7 m/s 5.8° 1016.2 hPa 0.9 m/s
19:00 1.9° 1017.0 hPa 1.9 m/s 0.0 mm 4.7° 1013.3 hPa 3.6 m/s 43.0 mm 4.8° 1016.1 hPa 1.0 m/s 0.0 mm -1.0° 1018.4 hPa 1.9 m/s 3.4° 1016.7 hPa 2.0 m/s
22:00 2.7° 1015.4 hPa 2.1 m/s 0.0 mm 5.1° 1011.3 hPa 3.7 m/s 44.7 mm 4.5° 1015.4 hPa 1.6 m/s 0.1 mm 0.7° 1016.3 hPa 2.0 m/s 3.3° 1016.3 hPa 2.9 m/s
 07:02     18:05    Daglengte: 11:03 Zaterdag 29 Feb
01:00 4.0° 1013.2 hPa 2.4 m/s 5.8 mm 7.4° 1009.6 hPa 4.0 m/s 49.6 mm 5.3° 1012.6 hPa 2.0 m/s 0.5 mm 2.4° 1014.3 hPa 2.2 m/s 3.9° 1014.6 hPa 3.6 m/s
04:00 3.4° 1011.4 hPa 2.7 m/s 54.6 mm 8.2° 1007.7 hPa 4.5 m/s 54.6 mm 2.6° 1012.0 hPa 2.5 m/s 4.0° 1012.2 hPa 3.7 m/s
07:00 3.6° 1009.1 hPa 2.8 m/s 56.0 mm 8.1° 1005.3 hPa 3.5 m/s 56.0 mm 2.9° 1009.7 hPa 2.7 m/s 2.9° 1010.7 hPa 3.5 m/s
10:00 8.0° 1004.7 hPa 2.7 m/s 40.2 mm 8.0° 1004.5 hPa 2.6 m/s 7.4° 1007.5 hPa 3.0 m/s 40.2 mm
13:00 10.6° 1002.1 hPa 2.7 m/s 40.2 mm 10.6° 1001.9 hPa 2.6 m/s 10.0° 1004.0 hPa 3.6 m/s 40.2 mm
16:00 9.3° 1002.3 hPa 3.1 m/s 40.2 mm 9.3° 1002.3 hPa 3.0 m/s 9.0° 1002.6 hPa 4.0 m/s 40.2 mm
19:00 7.8° 1002.9 hPa 3.4 m/s 40.2 mm 8.0° 1002.7 hPa 3.4 m/s 5.4° 1005.1 hPa 3.8 m/s 40.2 mm
22:00 6.5° 1006.9 hPa 2.0 m/s 40.8 mm 6.7° 1006.9 hPa 2.0 m/s 3.8° 1007.0 hPa 1.9 m/s 40.8 mm
 07:01     18:07    Daglengte: 11:06 Zondag 01 Maa
01:00 5.2° 1010.7 hPa 0.6 m/s 46.5 mm 5.4° 1011.0 hPa 0.6 m/s 3.0° 1006.8 hPa 0.9 m/s 46.5 mm
04:00 3.6° 1011.2 hPa 0.8 m/s 49.6 mm 3.6° 1011.7 hPa 0.7 m/s 3.6° 1005.2 hPa 1.4 m/s 49.6 mm
07:00 2.0° 1011.8 hPa 0.9 m/s 51.5 mm 1.8° 1012.4 hPa 0.8 m/s 3.9° 1005.4 hPa 1.4 m/s 51.5 mm
10:00 3.9° 1011.7 hPa 0.9 m/s 51.7 mm 3.8° 1012.2 hPa 1.0 m/s 4.8° 1005.7 hPa 0.6 m/s 51.7 mm
13:00 5.9° 1011.3 hPa 1.1 m/s 51.9 mm 5.8° 1012.1 hPa 1.1 m/s 7.0° 1002.6 hPa 1.6 m/s 51.9 mm
16:00 3.4° 1009.8 hPa 1.2 m/s 51.9 mm 3.0° 1010.7 hPa 1.2 m/s 7.5° 1000.0 hPa 1.1 m/s 51.9 mm
19:00 0.7° 1008.3 hPa 1.4 m/s 51.9 mm 0.3° 1009.2 hPa 1.3 m/s 4.9° 999.0 hPa 1.9 m/s 51.9 mm
22:00 -1.5° 1006.1 hPa 2.0 m/s 53.2 mm -2.1° 1006.5 hPa 2.0 m/s 4.0° 1001.4 hPa 2.0 m/s 53.2 mm
 06:59     18:08    Daglengte: 11:09 Maandag 02 Maa
01:00 -3.7° 1003.8 hPa 2.6 m/s 54.6 mm -4.4° 1003.9 hPa 2.6 m/s 3.9° 1003.0 hPa 2.7 m/s 54.6 mm
04:00 -1.5° 1003.9 hPa 2.6 m/s 54.6 mm -1.9° 1004.2 hPa 2.5 m/s 2.5° 1000.6 hPa 3.4 m/s 54.6 mm
07:00 0.8° 1004.2 hPa 2.5 m/s 54.7 mm 0.6° 1004.6 hPa 2.4 m/s 2.8° 999.6 hPa 3.1 m/s 54.7 mm
10:00 4.4° 1003.3 hPa 2.0 m/s 55.1 mm 4.2° 1003.5 hPa 1.9 m/s 6.3° 1000.1 hPa 2.0 m/s 55.1 mm
13:00 7.8° 1002.2 hPa 1.4 m/s 56.7 mm 7.9° 1002.5 hPa 1.5 m/s 6.4° 998.5 hPa 0.7 m/s 56.7 mm
16:00 5.3° 1001.2 hPa 1.3 m/s 56.8 mm 5.1° 1001.7 hPa 1.4 m/s 7.6° 996.0 hPa 0.7 m/s 56.8 mm
19:00 2.5° 1000.5 hPa 1.3 m/s 56.8 mm 2.3° 1000.9 hPa 1.3 m/s 5.0° 996.4 hPa 0.8 m/s 56.8 mm
22:00 2.4° 1001.6 hPa 1.1 m/s 56.8 mm 2.3° 1002.0 hPa 1.1 m/s 3.7° 996.8 hPa 0.9 m/s 56.8 mm
 06:57     18:10    Daglengte: 11:13 Dinsdag 03 Maa
01:00 2.3° 1002.7 hPa 1.0 m/s 56.8 mm 2.3° 1003.1 hPa 1.0 m/s 2.9° 997.8 hPa 1.0 m/s 56.8 mm
04:00 1.9° 1006.2 hPa 0.9 m/s 56.8 mm 1.9° 1006.8 hPa 0.9 m/s 2.3° 999.6 hPa 1.3 m/s 56.8 mm
07:00 1.6° 1009.7 hPa 0.9 m/s 56.9 mm 1.5° 1010.4 hPa 0.8 m/s 3.2° 1001.9 hPa 1.8 m/s 56.9 mm
10:00 2.6° 1012.2 hPa 1.0 m/s 58.7 mm 2.4° 1013.0 hPa 0.9 m/s 4.6° 1003.1 hPa 1.6 m/s 58.7 mm
13:00 3.5° 1014.8 hPa 1.1 m/s 60.5 mm 3.3° 1015.7 hPa 1.0 m/s 5.6° 1005.2 hPa 1.8 m/s 60.5 mm
16:00 2.9° 1016.4 hPa 1.0 m/s 61.2 mm 2.7° 1017.3 hPa 1.0 m/s 5.1° 1006.0 hPa 1.6 m/s 61.2 mm
19:00 2.1° 1018.0 hPa 1.0 m/s 61.3 mm 2.1° 1018.9 hPa 1.0 m/s 2.3° 1008.6 hPa 1.3 m/s 61.3 mm
22:00 0.8° 1018.0 hPa 1.0 m/s 61.4 mm 0.8° 1018.8 hPa 0.8 m/s 1.3° 1009.6 hPa 2.4 m/s 61.4 mm
 06:55     18:11    Daglengte: 11:16 Woensdag 04 Maa
01:00 -0.3° 1017.7 hPa 0.8 m/s 61.4 mm -0.5° 1018.6 hPa 0.7 m/s 1.3° 1008.4 hPa 2.4 m/s 61.4 mm
07:00 -4.2° 1015.3 hPa 2.3 m/s 61.6 mm -4.9° 1016.2 hPa 2.3 m/s 3.0° 1005.4 hPa 2.5 m/s 61.6 mm
13:00 5.7° 1013.1 hPa 1.6 m/s 61.7 mm 5.4° 1014.4 hPa 1.6 m/s 9.5° 999.1 hPa 1.7 m/s 61.7 mm
19:00 4.5° 1012.1 hPa 1.2 m/s 71.2 mm 4.5° 1013.4 hPa 1.1 m/s 4.4° 998.3 hPa 2.5 m/s 71.2 mm
 06:53     18:13    Daglengte: 11:20 Donderdag 05 Maa
01:00 2.0° 1007.0 hPa 2.9 m/s 74.9 mm 1.9° 1007.9 hPa 2.8 m/s 3.7° 997.3 hPa 3.6 m/s 74.9 mm
07:00 3.6° 1011.3 hPa 2.7 m/s 79.4 mm 3.9° 1012.6 hPa 2.7 m/s 0.5° 997.2 hPa 2.7 m/s 79.4 mm
13:00 5.1° 1012.4 hPa 2.6 m/s 80.0 mm 5.1° 1013.9 hPa 2.5 m/s 5.0° 995.7 hPa 4.0 m/s 80.0 mm
19:00 1.0° 1009.8 hPa 1.5 m/s 83.0 mm 0.9° 1010.9 hPa 1.5 m/s 2.0° 998.1 hPa 2.0 m/s 83.0 mm
 06:51     18:14    Daglengte: 11:23 Vrijdag 06 Maa
01:00 0.9° 1008.8 hPa 1.8 m/s 90.4 mm 0.8° 1009.5 hPa 1.7 m/s 1.9° 1001.1 hPa 3.3 m/s 90.4 mm
07:00 -1.0° 1010.2 hPa 1.2 m/s 97.7 mm -1.1° 1010.8 hPa 1.2 m/s 0.6° 1003.8 hPa 1.5 m/s 97.7 mm
13:00 2.2° 1004.5 hPa 3.8 m/s 101.2 mm 2.2° 1004.5 hPa 3.8 m/s 101.2 mm
19:00 1.4° 1006.9 hPa 2.2 m/s 106.9 mm 1.3° 1006.9 hPa 2.2 m/s 106.9 mm
 06:49     18:16    Daglengte: 11:27 Zaterdag 07 Maa
01:00 -0.2° 1011.5 hPa 1.3 m/s 0.8 mm
07:00 -0.2° 1011.3 hPa 1.0 m/s 1.0 mm
13:00 5.6° 1011.2 hPa 1.8 m/s 2.0 mm
19:00 0.9° 1014.4 hPa 0.7 m/s 1.5 mm
 06:47     18:17    Daglengte: 11:30 Zondag 08 Maa
01:00 -1.0° 1016.7 hPa 1.6 m/s 0.4 mm
07:00 -1.6° 1017.1 hPa 1.5 m/s 0.5 mm
13:00 7.6° 1014.1 hPa 0.5 m/s 0.3 mm
19:00 2.4° 1015.5 hPa 0.3 m/s 0.6 mm
 06:45     18:19    Daglengte: 11:34 Maandag 09 Maa
01:00 0.7° 1017.2 hPa 1.3 m/s 0.7 mm
07:00 -0.1° 1018.1 hPa 1.0 m/s 0.8 mm
13:00 8.2° 1016.5 hPa 0.7 m/s 0.5 mm
19:00 2.3° 1018.3 hPa 0.4 m/s 0.4 mm
 06:43     18:20    Daglengte: 11:37 Dinsdag 10 Maa
01:00 1.0° 1020.1 hPa 1.4 m/s 0.2 mm
07:00 0.5° 1019.9 hPa 1.6 m/s 0.0 mm
13:00 9.6° 1016.9 hPa 0.5 m/s 0.2 mm
19:00 4.4° 1017.8 hPa 0.3 m/s 0.6 mm
 06:41     18:21    Daglengte: 11:40 Woensdag 11 Maa
01:00 2.1° 1019.3 hPa 1.1 m/s 0.5 mm
07:00 1.6° 1019.5 hPa 1.2 m/s 0.8 mm
13:00 9.9° 1017.5 hPa 0.7 m/s 0.4 mm
19:00 4.3° 1018.3 hPa 0.1 m/s 1.1 mm
 06:39     18:23    Daglengte: 11:44 Donderdag 12 Maa
01:00 2.9° 1019.6 hPa 1.4 m/s 1.6 mm
FMI Hirlam - 7.5 km EWN WRFDA - 12 km DWD ICON - 7 km GFS - 25 km Basiskaart






























































Updatetijd (Europe/Amsterdam) Resolutie Lengte Stap
FMI Hirlam 01:00, 07:00, 13:00, 19:00 7.5 km 49h 1h
EWN WRFDA 02:15, 08:15, 14:15, 20:15 12 km 73h 1h
DWD ICON 22:45, 04:45, 10:45, 16:45 7 km 75h 1h
GFS 01:00, 07:00, 13:00, 19:00 25 km 237h 3h
30+ mm
25-30 mm
20-25 mm
15-20 mm
10-15 mm
6-10 mm
4-6 mm
2-4 mm
1-2 mm
0.5-1 mm
0.2-0.5 mm
0.1-0.2 mm
30+ mm
25-30 mm
20-25 mm
15-20 mm
10-15 mm
6-10 mm
4-6 mm
2-4 mm
1-2 mm
0.5-1 mm
0.2-0.5 mm
0.1-0.2 mm
Sneeuwval
Natte sneeuw
Hagel
Vorst
30+ mm
25-30 mm
20-25 mm
15-20 mm
10-15 mm
6-10 mm
4-6 mm
2-4 mm
1-2 mm
0.5-1 mm
0.2-0.5 mm
0.1-0.2 mm
Sneeuwval
Natte sneeuw
Hagel
Vorst
Onweer
50 mm
40 mm
30 mm
26 mm
22 mm
18 mm
14 mm
10 mm
9 mm
8 mm
7 mm
6 mm
5 mm
4.5 mm
4 mm
3.5 mm
3 mm
2.5 mm
2 mm
1.5 mm
1 mm
0.8 mm
0.6 mm
0.4 mm
0.2 mm
0.05 mm
35°
30°
25°
20°
15°
10°
-5°
-10°
-15°
-20°
-25°
-30°
-35°
33> m/s
29 m/s
25 m/s
21 m/s
17 m/s
14 m/s
11 m/s
8 m/s
5 m/s
3 m/s
0 m/s
2600 J/kg
2400 J/kg
2200 J/kg
2000 J/kg
1800 J/kg
1600 J/kg
1400 J/kg
1200 J/kg
1000 J/kg
800 J/kg
600 J/kg
400 J/kg
200 J/kg
70 dBZ
65 dBZ
60 dBZ
55 dBZ
50 dBZ